This is the latest recevied weather packets stored in our database for station/object W4MLN-1. If no packets are shown the sender has not sent any weather packets the latest 10 day(s).
| Time | Temp. | Humidity | Pressure | Rain* | Wind** | Luminosity | Snow |
|---|---|---|---|---|---|---|---|
| 1777649951 | 13.89° C | 54% | 1014.3 hPa | 0 mm | - | 947 W/m² | - |
| 1777649651 | 13.33° C | 57% | 1014.1 hPa | 0 mm | - | 957 W/m² | - |
| 1777649351 | 13.33° C | 57% | 1014.1 hPa | 0 mm | - | 716 W/m² | - |
| 1777649048 | 13.33° C | 55% | 1014.1 hPa | 0 mm | - | 634 W/m² | - |
| 1777648748 | 13.33° C | 56% | 1014.1 hPa | 0 mm | - | 842 W/m² | - |
| 1777648448 | 12.78° C | 59% | 1014.1 hPa | 0 mm | - | 794 W/m² | - |
| 1777648148 | 12.78° C | 58% | 1014.3 hPa | 0 mm | - | 834 W/m² | - |
| 1777647849 | 12.78° C | 59% | 1014.4 hPa | 0 mm | - | 809 W/m² | - |
| 1777647548 | 12.22° C | 61% | 1014.4 hPa | 0 mm | - | 791 W/m² | - |
| 1777647249 | 12.22° C | 59% | 1014.4 hPa | 0 mm | - | 778 W/m² | - |
| 1777646946 | 11.67° C | 63% | 1014.5 hPa | 0 mm | - | 761 W/m² | - |
| 1777646646 | 11.67° C | 59% | 1014.5 hPa | 0 mm | - | 480 W/m² | - |
| 1777646346 | 11.11° C | 64% | 1014.5 hPa | 0 mm | - | 255 W/m² | - |
| 1777646046 | 11.11° C | 61% | 1014.6 hPa | 0 mm | - | 546 W/m² | - |
| 1777645746 | 10.56° C | 63% | 1014.5 hPa | 0 mm | - | 352 W/m² | - |
| 1777645446 | 10.56° C | 62% | 1014.6 hPa | 0 mm | - | 331 W/m² | - |
| 1777645146 | 11.11° C | 65% | 1014.7 hPa | 0 mm | - | 682 W/m² | - |
| 1777644846 | 10.56° C | 63% | 1014.6 hPa | 0 mm | - | 296 W/m² | - |
| 1777644547 | 10.56° C | 63% | 1014.7 hPa | 0 mm | - | 311 W/m² | - |
| 1777644246 | 10° C | 63% | 1014.8 hPa | 0 mm | - | 742 W/m² | - |
| 1777643946 | 9.44° C | 65% | 1014.8 hPa | 0 mm | - | 357 W/m² | - |
| 1777643646 | 9.44° C | 67% | 1014.8 hPa | 0 mm | - | 530 W/m² | - |
| 1777643347 | 9.44° C | 67% | 1014.8 hPa | 0 mm | - | 444 W/m² | - |
| 1777643043 | 9.44° C | 69% | 1014.7 hPa | 0 mm | - | 524 W/m² | - |
| 1777642741 | 8.89° C | 72% | 1014.8 hPa | 0 mm | - | 567 W/m² | - |
* Rain latest hour (hover to see other rain measurements)
** Current wind speed in m/s (hover to see current wind gust speed)